User: anonymous   Login
Location: Macksville High School
(37.9611°N, 99.9654°W)
Time: 06:16:42
(UTC+00:00)
Language:

Atlas Centaur 2 - Orbit

View from above orbital plane
View from above orbital plane
View from above satellite
View from above satellite

Ground track
Ground track

The orbit data is extracted from the following two-line orbital elements,

1   694U 63047A   20156.88162798 +.00000290 +00000-0 +27094-4 0  9999
2   694 030.3561 320.0383 0585634 077.5881 288.9595 14.02599570835335
Epoch (UTC): 04 June 2020 21:09:32
Eccentricity: 0.0585634
inclination: 30.3561°
perigee height: 459 km
apogee height: 1310 km
right ascension of ascending node: 320.0383°
argument of perigee: 77.5881°
revolutions per day: 14.02599570
mean anomaly at epoch: 288.9595°
orbit number at epoch: 83533

The dashed part of the orbit path shows where the satellite is in the earth's shadow,  

DLR